TOPSWRTT 000
TTAA00 KICT 280012

Wichita AWIPS Roundup
National Weather Service Wichita KS
700 PM CDT WED AUG 27 2014

....Central Kansas....
  
CITY           SKY/WX    TMP DP  RH WIND       PRES   REMARKS
RUSSELL        PTSUNNY   79  68  69 SE10      29.98F HX  81           
6HR MIN TEMP:  76; 6HR MAX TEMP:  82; 6HR PCP: TRACE;                

SALINA         CLOUDY    85  68  56 CALM      29.99F HX  88           
6HR MIN TEMP:  85; 6HR MAX TEMP:  88;                                

GREAT BEND     PTSUNNY   82  68  61 SE10      29.99F HX  85           
6HR MIN TEMP:  77; 6HR MAX TEMP:  88;                                

ELLSWORTH      MOSUNNY   81  72  74 E7        29.98F HX  84           
MCPHERSON      SUNNY     86  64  48 SE7       29.99F HX  87           
HAYS           CLOUDY    81  66  61 SE12      29.99F HX  83           
6HR MIN TEMP:  81; 6HR MAX TEMP:  84;                                


....South Central Kansas....
  
CITY           SKY/WX    TMP DP  RH WIND       PRES   REMARKS
HUTCHINSON     CLOUDY    85  67  54 E6        29.99F HX  87           
6HR MIN TEMP:  84; 6HR MAX TEMP:  88;                                

NEWTON         CLOUDY    88  61  40 SE5       30.04F HX  88           
6HR MIN TEMP:  88; 6HR MAX TEMP:  90;                                

KINGMAN        MOSUNNY   86  70  58 SE3       29.98S HX  90           
WICHITA (ICT)  PTSUNNY   89  63  41 SE12      29.98S HX  90           
6HR MIN TEMP:  87; 6HR MAX TEMP:  92;                                

JABARA ARPT    MOSUNNY   89  62  40 S10       29.99S HX  89           
6HR MIN TEMP:  86; 6HR MAX TEMP:  92;                                

MCCONNELL AFB  MOSUNNY   90  62  39 SE10      29.99F HX  90           
6HR MIN TEMP:  88; 6HR MAX TEMP:  93;                                

EL DORADO      FAIR      91  63  38 S6        29.99S HX  92           
HARPER           N/A     91  57  31 S10       30.00S HX  90           
WELLINGTON     SUNNY     91  66  43 SE7       29.99S HX  94           
WINFIELD       SUNNY     90  65  43 SE8       29.99S HX  92           
6HR MIN TEMP:  89; 6HR MAX TEMP:  94;                                

 
....Southeast Kansas....
  
CITY           SKY/WX    TMP DP  RH WIND       PRES   REMARKS
EUREKA         SUNNY     91  63  38 SE6       29.99S HX  92           
CHANUTE        MOSUNNY   93  64  38 S9        29.99R HX  94           
6HR MIN TEMP:  92; 6HR MAX TEMP:  97;                                

PARSONS        MOSUNNY   93  67  42 SW5       29.99S HX  96           
6HR MIN TEMP:  92; 6HR MAX TEMP:  97;                                

COFFEYVILLE    MOSUNNY   93  67  42 S8        29.97S HX  96           
6HR MIN TEMP:  91; 6HR MAX TEMP:  96;                                

INDEPENDENCE   MOSUNNY  N/A N/A N/A S5        29.98R                  
FORT SCOTT     PTSUNNY   84  64  51 SE8G16    30.00S HX  86           
PITTSBURG      PTCLDY    81  70  67 E8        30.00F HX  85           

....Western Kansas....
  
CITY           SKY/WX    TMP DP  RH WIND       PRES   REMARKS
GOODLAND       PTSUNNY   81  62  52 S6        30.00F HX  82           
6HR MIN TEMP:  74; 6HR MAX TEMP:  81; 6HR PCP: TRACE;                

HILL CITY      TSTM      71  68  90 E16       29.98F                  
6HR MIN TEMP:  69; 6HR MAX TEMP:  84; 6HR PCP:  1.39;                

LIBERAL        PTSUNNY   81  64  57 SE16      30.02R HX  82           
6HR MIN TEMP:  73; 6HR MAX TEMP:  88;                                

GARDEN CITY    CLOUDY    77  71  82 S14       29.98F                  
6HR MIN TEMP:  69; 6HR MAX TEMP:  86; 6HR PCP:  0.67;                

DODGE CITY     CLOUDY    83  69  62 SE16G22   29.99F HX  86           
6HR MIN TEMP:  80; 6HR MAX TEMP:  86; 6HR PCP: TRACE;                

PRATT          MOSUNNY   86  61  42 SE9       30.00F HX  86           
MEDICINE LODGE   N/A     90  61  37 SE8       29.96F HX  90           
6HR MIN TEMP:  82; 6HR MAX TEMP:  93;                                


....Northeast Kansas....
  
CITY           SKY/WX    TMP DP  RH WIND       PRES   REMARKS
CONCORDIA      PTSUNNY   80  74  81 E3        30.02R HX  85           
6HR MIN TEMP:  78; 6HR MAX TEMP:  83; 6HR PCP: TRACE;                

TOPEKA         CLOUDY    84  72  67 NE7       30.01F HX  89           
6HR MIN TEMP:  84; 6HR MAX TEMP:  89;                                

MANHATTAN      MOSUNNY   85  72  65 E13       30.00R HX  91           
6HR MIN TEMP:  85; 6HR MAX TEMP:  91;                                

LAWRENCE       CLOUDY    85  72  65 E8        30.01F HX  91           
6HR MIN TEMP:  85; 6HR MAX TEMP:  91;                                

OLATHE         CLOUDY    82  72  71 SE8       30.03S HX  87           
6HR MIN TEMP:  82; 6HR MAX TEMP:  87;                                

EMPORIA        MOSUNNY   89  67  47 E7        29.99S HX  92           
6HR MIN TEMP:  89; 6HR MAX TEMP:  93;                                


....Oklahoma....
  
CITY           SKY/WX    TMP DP  RH WIND       PRES   REMARKS
GAGE           PTSUNNY   80  70  71 SE7       30.00S HX  83           
6HR MIN TEMP:  74; 6HR MAX TEMP:  92; 6HR PCP:  0.06;                

PONCA CITY     SUNNY     93  63  36 SE12      29.96S HX  94           
6HR MIN TEMP:  90; 6HR MAX TEMP:  96;                                

BARTLESVILLE   MOSUNNY   91  66  43 S5        29.98S HX  93           
6HR MIN TEMP:  91; 6HR MAX TEMP:  97;                                

TULSA          PTSUNNY   93  67  42 SE10      29.95F HX  96           
6HR MIN TEMP:  92; 6HR MAX TEMP:  97;                                

OKLAHOMA CITY  MOSUNNY   92  63  38 SE14      29.98S HX  93           
6HR MIN TEMP:  91; 6HR MAX TEMP:  96;                                


Note: "fair" indicates few or no clouds below 12,000 feet with no
significant weather and/or obstructions to visibility.
  

USA.gov is the U.S. government's official web portal to all federal, state and local government web resources and services.